Weather History for Montauk, NY

Change the Weather History Date:

Tuesday, January 14, 2014

  Actual Average (KHTO) Record (KHTO)
Temperature  
Mean Temperature 48 °F -  
Max Temperature 51 °F 39 °F 30 °F (2015)
Min Temperature 43 °F 21 °F 26 °F (2015)
Degree Days  
Heating Degree Days 18    
Moisture  
Dew Point 45 °F    
Average Humidity 89    
Maximum Humidity 93    
Minimum Humidity 77    
Precipitation  
Precipitation 0.87 in - - ()
Sea Level Pressure  
Sea Level Pressure 29.80 in    
Wind  
Wind Speed 7 mph (SW)    
Max Wind Speed 13 mph    
Max Gust Speed 21 mph    
Averages and records for this station are not official NWS values.
T = Trace of Precipitation, MM = Missing Value Source: NWS Daily Summary

Daily Weather History Graph

Daily Weather History Graph

Search for Another Location

Airport:

Trip Planner

Search our weather history database for the weather conditions in past years. The results will help you decide how hot, cold, wet, or windy it might be!

Date:

Astronomy

Jan. 14, 2014 Rise Set
Actual Time 7:11 AM EST 4:42 PM EST
Civil Twilight 6:40 AM EST 5:13 PM EST
Nautical Twilight 6:06 AM EST 5:47 PM EST
Astronomical Twilight 5:33 AM EST 6:20 PM EST
Moon 3:45 PM EST (1/14) 5:43 AM EST (1/14)
Length of Visible Light 10h 32m
Length of Day
9h 31m
Waxing Gibbous, 98% of the Moon is Illuminated
Jan 14
Waxing Gibbous
Jan 15
Full
Jan 24
Last Quarter
Jan 30
New
Feb 6
First Quarter

Hourly Weather History & Observations

Time (EST) Temp. Windchill Dew Point Humidity Pressure Visibility Wind Dir Wind Speed Gust Speed Precip Events Conditions
12:54 AM 48.9 °F - 44.1 °F 83% 29.95 in - South 9.2 mph - N/A   Unknown
1:54 AM 50.0 °F - 45.0 °F 83% 29.93 in - South 9.2 mph - N/A   Unknown
2:54 AM 48.0 °F - 45.0 °F 89% 29.91 in - South 9.2 mph - N/A   Unknown
3:54 AM 48.9 °F - 45.0 °F 86% 29.89 in - South 8.1 mph - N/A   Unknown
4:54 AM 48.9 °F - 45.0 °F 86% 29.88 in - South 11.5 mph - N/A   Unknown
5:54 AM 48.0 °F - 43.0 °F 83% 29.89 in - SSW 9.2 mph - N/A   Unknown
6:54 AM 50.0 °F - 43.0 °F 77% 29.88 in - SSW 8.1 mph - N/A   Unknown
7:54 AM 48.9 °F - 44.1 °F 83% 29.89 in - SSW 6.9 mph - N/A   Unknown
8:54 AM 50.0 °F - 45.0 °F 83% 29.89 in - SW 6.9 mph - 0.03 in   Unknown
9:54 AM 48.9 °F - 46.0 °F 90% 29.88 in - Calm Calm - 0.04 in   Unknown
10:54 AM 48.0 °F - 45.0 °F 89% 29.82 in - SE 3.5 mph - 0.05 in   Unknown
11:54 AM 48.9 °F - 46.0 °F 90% 29.79 in - Calm Calm - 0.05 in   Unknown
12:54 PM 48.0 °F - 46.0 °F 93% 29.76 in - Calm Calm - 0.08 in   Unknown
1:54 PM 48.9 °F - 46.9 °F 93% 29.73 in - Calm Calm - 0.06 in   Unknown
2:54 PM 48.9 °F - 46.9 °F 93% 29.70 in - Calm Calm - 0.08 in   Unknown
3:54 PM 48.9 °F - 46.9 °F 93% 29.67 in - SSE 3.5 mph - 0.12 in   Unknown
4:54 PM 51.1 °F - 48.9 °F 92% 29.63 in - Calm Calm - 0.12 in   Unknown
5:54 PM 46.9 °F - 44.1 °F 90% 29.65 in - West 6.9 mph - 0.15 in   Unknown
6:54 PM 45.0 °F 40.6 °F 43.0 °F 93% 29.68 in - West 8.1 mph - 0.05 in   Unknown
7:54 PM 45.0 °F 42.6 °F 43.0 °F 93% 29.69 in - West 4.6 mph - 0.04 in   Unknown
8:54 PM 44.1 °F 39.5 °F 42.1 °F 93% 29.72 in - West 8.1 mph - N/A   Unknown
9:54 PM 44.1 °F 37.7 °F 41.0 °F 89% 29.79 in - West 12.7 mph 20.7 mph N/A   Unknown
10:54 PM 44.1 °F 39.5 °F 42.1 °F 93% 29.81 in - West 8.1 mph - N/A   Unknown
11:54 PM 43.0 °F 37.7 °F 41.0 °F 93% 29.82 in - West 9.2 mph - N/A   Unknown